sat.trackr.live / text

‹ back to catalog

STARLINK-34566

NORAD 64765 · 2025-147L

PAYLOAD ACTIVE UNKNOWN

§ Identity

Operator
Country
US
Launch date
2025-07-08
Launch site
AFETR
Launch vehicle
Mass (kg)
RCS (m²)

Purposes: comms

External: N2YO · Heavens-Above · Gunter

§ Orbital elements

Epoch: 2026-05-24T23:49:20.448192Z

Period
93.85 min
Inclination
53.1601°
Eccentricity
0.0001069
Mean motion
15.34402148 rev/d
Perigee alt
462.0 km
Apogee alt
463.4 km
Semi-major
6,840.8 km
B*
5.4379e-4
RAAN
247.6476°
Arg perigee
66.9478°
Mean anomaly
293.1637°
Rev number
5,044

§ Raw data

STARLINK-345661 64765U 25147L   26144.99259778  .00018042  00000+0  54379-3 0  99952 64765  53.1601 247.6476 0001069  66.9478 293.1637 15.34402148 50444

JSON: /api/v1/satellites/64765 · /tle

For live sub-satellite position, see the globe view (requires WebGL).

§ Visibility from observer

Set your observer location to see the next 7 days of passes ≥ 10°. The values pass through the URL so the page stays shareable.

No JS? Fill the form by hand. The geolocation button needs JavaScript.